sat.trackr.live / text

‹ back to catalog

STARLINK-1666

NORAD 46357 · 2020-062AJ

PAYLOAD ACTIVE UNKNOWN

§ Identity

Operator
Country
US
Launch date
2020-09-03
Launch site
AFETR
Launch vehicle
Mass (kg)
RCS (m²)

Purposes: comms

External: N2YO · Heavens-Above · Gunter

§ Orbital elements

Epoch: 2026-07-29T13:48:22.877856Z

Period
87.56 min
Inclination
53.0143°
Eccentricity
0.0009126
Mean motion
16.44535851 rev/d
Perigee alt
147.8 km
Apogee alt
159.7 km
Semi-major
6,531.9 km
B*
3.2768e-4
RAAN
343.7176°
Arg perigee
301.9168°
Mean anomaly
58.0992°
Rev number
32,731

§ Raw data

STARLINK-16661 46357U 20062AJ  26210.57526479  .11150427  12570-4  32768-3 0  99902 46357  53.0143 343.7176 0009126 301.9168  58.0992 16.44535851327311

JSON: /api/v1/satellites/46357 · /tle

For live sub-satellite position, see the globe view (requires WebGL).

§ Visibility from observer

Set your observer location to see the next 7 days of passes ≥ 10°. The values pass through the URL so the page stays shareable.

No JS? Fill the form by hand. The geolocation button needs JavaScript.